Location: Pensacola
(30.4142°N, 87.2155°W)
Time: 10:44:08
(UTC-05:00)

PE2_FLT2 (TYVAK-0262) - Visible Passes

Search period start: 12 July 2024 00:00
Search period end: 22 July 2024 00:00
Orbit: 582 x 594 km, 97.8° (Epoch: 11 July)

Date Brightness Start Highest point End Pass type
(mag) Time Alt. Az. Time Alt. Az. Time Alt. Az.
12 Jul ? 02:16:49 17° N 02:16:49 17° N 02:17:48 10° N visible
13 Jul ? 02:24:20 16° NNW 02:24:20 16° NNW 02:25:11 10° NNW visible
14 Jul ? 02:31:50 14° NNW 02:31:50 14° NNW 02:32:31 10° NNW visible
15 Jul ? 02:39:19 13° NNW 02:39:19 13° NNW 02:39:49 10° NNW visible
16 Jul ? 02:46:49 11° NNW 02:46:49 11° NNW 02:47:02 10° NNW visible
18 Jul ? 01:25:16 11° NNE 01:25:16 11° NNE 01:25:25 10° NNE visible
19 Jul ? 01:32:43 12° NNE 01:32:43 12° NNE 01:33:03 10° NNE visible
20 Jul ? 01:40:10 12° NNE 01:40:10 12° NNE 01:40:36 10° NNE visible
21 Jul ? 01:47:37 13° NNE 01:47:37 13° NNE 01:48:06 10° N visible
